Regional Weather Roundup
Issued by NWS

Home | Current Version | Previous Version | Graphics & Text | Print | Product List | Glossary On
Versions: 1 2 3 4 5 6 7 8 9 10 11 12 13 14 15 16 17 18 19 20 21 22 23 24 25 26 27 28 29 30 31 32 33 34 35 36 37 38 39 40 41 42 43 44 45 46 47 48 49 50
000
ASUS43 KIND 202359
RWRIN

WEATHER ROUNDUP FOR INDIANA
NATIONAL WEATHER SERVICE INDIANAPOLIS IN
700 PM EST THU NOV 20 2014

NOTE: "FAIR" INDICATES FEW OR NO CLOUDS BELOW 12,000 FEET WITH NO
SIGNIFICANT WEATHER AND/OR OBSTRUCTIONS TO VISIBILITY.

* - STATION DOES NOT REPORT WEATHER SUCH AS PRECIPITATION OR FOG.

+ - STATION NOT QUALITY CONTROLLED BY THE NATIONAL WEATHER SERVICE.
    USE DATA WITH CAUTION...ESPECIALLY DEWPOINT AND RELATIVE
    HUMIDITY OBSERVATIONS.

INZ001>003-010>013-019-020-210100-
NORTHWEST INDIANA

CITY           SKY/WX    TMP DP  RH WIND       PRES   REMARKS
GARY /AIRPORT/ CLEAR     27   5  39 W15       30.17R WCI  15
KNOX *+        CLEAR     23   5  46 W8        30.14R WCI  14
MONTICELLO +   CLEAR     24  11  57 W8        30.16R WCI  15
VALPARAISO     NOT AVBL

$$

LMZ046-743>745-210100-
SOUTHERN LAKE MICHIGAN

STATION/POSITION TIME  TEMP WIND        PRES
                       AIR  DIR/SP/G
                 (UTC) (F)  (DEG/KT/KT) (MB)
MICHIGAN CITY    2300   27  250/ 28/ 35   N/A

$$

INZ004-005-014>016-021>024-210100-
NORTH CENTRAL INDIANA

CITY           SKY/WX    TMP DP  RH WIND       PRES   REMARKS
ELKHART        CLOUDY    25   7  46 W12       30.11R WCI  14
GOSHEN         MOCLDY    22   7  52 W9        30.10R WCI  12
6HR MIN TEMP:  22; 6HR MAX TEMP:  28;

PERU/GRISSOM   CLEAR     22  15  75 W8        30.14R WCI  12
6HR MIN TEMP:  22; 6HR MAX TEMP:  29;

SOUTH BEND     MOCLDY    22   8  55 W9        30.12R WCI  12
6HR MIN TEMP:  22; 6HR MAX TEMP:  27;


$$

INZ006>009-017-018-025>027-210100-
NORTHEAST INDIANA

CITY           SKY/WX    TMP DP  RH WIND       PRES   REMARKS
ANGOLA *+      CLOUDY    23   9  54 W7        30.06R WCI  15
FORT WAYNE     CLEAR     21  11  65 W10       30.12R WCI  10
6HR MIN TEMP:  21; 6HR MAX TEMP:  28;


$$

INZ028-029-035-036-043>045-051>053-210100-
WEST CENTRAL INDIANA

CITY           SKY/WX    TMP DP  RH WIND       PRES   REMARKS
GREENCASTLE +  CLEAR     27  16  63 SW6       30.20R WCI  20
LAFAYETTE      CLEAR     24  11  57 W7        30.18R WCI  16
6HR MIN TEMP:  24; 6HR MAX TEMP:  30;

TERRE HAUTE    CLEAR     25  17  72 W6        30.22R WCI  18
6HR MIN TEMP:  25; 6HR MAX TEMP:  32;


$$

INZ030>032-037>040-046>048-054>057-064-065-210100-
CENTRAL INDIANA

CITY           SKY/WX    TMP DP  RH WIND       PRES   REMARKS
INDIANAPOLIS   PTCLDY    25  14  63 SW13      30.18R WCI  14
6HR MIN TEMP:  25; 6HR MAX TEMP:  30;

-EAGLE CREEK   CLOUDY    27  14  58 SW7       30.17R WCI  19
6HR MIN TEMP:  27; 6HR MAX TEMP:  29;

KOKOMO *+      CLEAR     25  12  58 W10       30.15R WCI  15
MT COMFORT *+  MOCLDY    25   9  50 W12       30.18R WCI  14
SHELBYVILLE    CLEAR     25  14  63 W7        30.19R WCI  17
6HR MIN TEMP:  25; 6HR MAX TEMP:  32;


$$

INZ033-034-041-042-049-050-058-059-210100-
EAST CENTRAL INDIANA

CITY           SKY/WX    TMP DP  RH WIND       PRES   REMARKS
MUNCIE         CLOUDY    26  15  63 MISG      30.14R
6HR MIN TEMP:  26; 6HR MAX TEMP:  28;


$$

INZ060-061-067>069-081>083-085>088-210100-
SOUTHWEST INDIANA

CITY           SKY/WX    TMP DP  RH WIND       PRES   REMARKS
EVANSVILLE     PTCLDY    30  20  66 CALM      30.26R
6HR MIN TEMP:  30; 6HR MAX TEMP:  35;

HUNTINGBURG *+ CLEAR     28  16  59 W3        30.25S
6HR MIN TEMP:  28; 6HR MAX TEMP:  34;


$$

INZ062-063-066-070>080-084-089>092-210100-
SOUTH CENTRAL AND SOUTHEAST INDIANA

CITY           SKY/WX    TMP DP  RH WIND       PRES   REMARKS
BLOOMINGTON    CLEAR     26  15  63 CALM      30.21R
6HR MIN TEMP:  26; 6HR MAX TEMP:  31;


$$



USA.gov is the U.S. government's official web portal to all federal, state and local government web resources and services.